Back to catalog

BREEZE-M DEB

LostHEO
NORAD 38630·DEBRIS·🇷🇺 Russia

Launched Mar 14, 2008 from Baikonur Cosmodrome

Loading…

Next Passes (next 24 hours)

TLE

StaleSource: Space-Track

Epoch: Sep 28, 2015, 04:15 UTC

1 38630U 08011CD  15271.17731201 -.00001412  00000-0 -75793-2 0  9991
2 38630  49.2813 256.5100 6504270 137.2706 348.5675  3.11052931 42366

Track BREEZE-M DEB in real time with AllMySat

Download on the App Store